Voltar ao catálogo

STARLINK-3961

AtivoComunicaçõesVLEO
NORAD 52637·PAYLOAD·🇺🇸 United States

Lançado May 14, 2022 de Cape Canaveral Space Force Station

Loading…

Próximas Passagens (próximas 24 horas)

TLE

AtualizadoSource: CelesTrak SupGP

Época: Sep 14, 2026, 20:52 UTC

1 52637C 22052AR  26257.86993056 -.00021769  00000+0 -70022-3 0  2579
2 52637  53.1568 117.2181 0001366  84.3462  34.2026 15.31704733    19

Acompanhe STARLINK-3961 em tempo real com AllMySat

Download on the App Store